CW2323 Weather Reports


time (UTC)temp
C
wind
direction
speed
KPH
gust
KPH
rain 1hr
cm
rain 24hr
cm
rain mn
cm
humidity
%
barometer
mb
20260906220257 30 145 8.0 19.3 0.00 1.45 0.00 29 1006.8
20260906215224 30 48 8.0 17.7 0.00 1.45 0.00 31 1007.0
20260906214233 29 64 4.8 16.1 0.00 1.45 0.00 35 1007.4
20260906213219 30 96 3.2 19.3 0.00 1.45 0.00 27 1007.4
20260906212244 30 71 4.8 16.1 0.00 1.45 0.00 27 1007.5
20260906211227 30 86 4.8 14.5 0.00 1.45 0.00 27 1007.5
20260906210235 31 86 1.6 20.9 0.00 1.45 0.00 28 1007.5
20260906205248 31 65 9.7 22.5 0.00 1.45 0.00 28 1007.6
20260906204228 31 45 9.7 20.9 0.00 1.45 0.00 28 1008.0
20260906203241 31 15 11.3 19.3 0.00 1.45 0.00 28 1008.0
20260906202244 31 19 12.9 25.7 0.00 1.45 0.00 28 1008.1
20260906201223 30 5 12.9 22.5 0.00 1.45 0.00 28 1008.2
20260906200230 30 33 6.4 19.3 0.00 1.45 0.00 28 1008.2
20260906195255 30 22 11.3 24.1 0.00 1.45 0.00 28 1008.5
20260906194223 30 26 11.3 19.3 0.00 1.45 0.00 29 1008.7
20260906193248 30 21 9.7 16.1 0.00 1.45 0.00 30 1008.7
20260906192232 30 54 8.0 17.7 0.00 1.45 0.00 32 1009.1
20260906191233 30 50 9.7 17.7 0.00 1.45 0.00 30 1009.3
20260906190219 29 34 8.0 14.5 0.00 1.45 0.00 30 1009.3
20260906185226 28 22 8.0 19.3 0.00 1.45 0.00 33 1009.5
20260906184231 28 360 9.7 16.1 0.00 1.45 0.00 34 1009.9
20260906183254 28 41 12.9 20.9 0.00 1.45 0.00 36 1009.9
20260906182235 27 20 6.4 16.1 0.00 1.45 0.00 38 1010.1
20260906181228 27 34 6.4 16.1 0.00 1.45 0.00 39 1010.6
20260906180257 27 75 4.8 14.5 0.00 1.45 0.00 39 1010.6
20260906175238 26 27 6.4 11.3 0.00 1.45 0.00 39 1010.7
20260906174229 26 26 3.2 8.0 0.00 1.45 0.00 39 1011.1
20260906173228 26 355 4.8 9.7 0.00 1.45 0.00 41 1011.1
20260906172224 26 348 6.4 11.3 0.00 1.45 0.00 44 1011.3
20260906171224 25 333 1.6 6.4 0.00 1.45 0.00 43 1011.6
20260906170228 25 333 1.6 4.8 0.00 1.45 0.00 46 1011.6
20260906165235 25 333 3.2 8.0 0.00 1.45 0.00 44 1011.7
20260906164223 25 329 1.6 6.4 0.00 1.45 0.00 46 1011.8
20260906163234 24 329 1.6 4.8 0.00 1.45 0.00 50 1011.8
20260906162224 23 329 0.0 1.6 0.00 1.45 0.00 50 1011.8
20260906161225 22 329 0.0 6.4 0.00 1.45 0.00 52 1011.8
20260906160233 22 329 3.2 4.8 0.00 1.45 0.00 57 1011.8
20260906155235 21 329 0.0 9.7 0.00 1.45 0.00 59 1011.6
20260906154220 21 246 1.6 8.0 0.00 1.45 0.00 59 1011.8
20260906153227 20 242 3.2 8.0 0.00 1.45 0.00 64 1011.8
20260906152220 19 238 3.2 8.0 0.00 1.45 0.00 64 1011.8
20260906151222 18 236 0.0 0.0 0.00 1.45 0.00 65 1011.8
20260906150230 18 236 0.0 0.0 0.00 1.45 0.00 63 1011.8
20260906145234 18 236 0.0 0.0 0.00 1.45 0.00 63 1011.8
20260906144245 17 236 0.0 0.0 0.00 1.45 0.00 70 1011.8
20260906143244 17 236 0.0 0.0 0.00 1.45 0.00 77 1011.8
20260906142224 16 236 0.0 0.0 0.00 1.45 0.00 80 1011.8
20260906141254 16 236 0.0 0.0 0.00 1.45 0.00 81 1011.9
20260906140245 16 236 0.0 6.4 0.00 1.45 0.00 82 1011.9
20260906135233 16 236 4.8 9.7 0.00 1.45 0.00 84 1011.8
20260906134235 15 162 0.0 1.6 0.00 1.45 0.00 82 1011.6
20260906133221 14 162 0.0 0.0 0.00 1.45 0.00 82 1011.6
20260906132233 14 162 0.0 0.0 0.00 1.45 0.00 82 1011.4
20260906131240 13 162 0.0 0.0 0.00 1.45 0.00 81 1011.3
20260906130247 13 162 0.0 0.0 0.00 1.45 0.00 80 1011.3
20260906125254 13 162 0.0 6.4 0.00 1.45 0.00 80 1011.2
20260906124237 14 162 0.0 3.2 0.00 1.45 0.00 78 1011.1
20260906123233 14 162 1.6 3.2 0.00 1.45 0.00 76 1011.1
20260906122226 15 162 0.0 0.0 0.00 1.45 0.00 75 1011.1
20260906121239 15 162 0.0 4.8 0.00 1.45 0.00 74 1011.2
20260906120246 14 162 3.2 6.4 0.00 1.45 0.00 75 1011.2
20260906115253 14 162 4.8 6.4 0.00 1.45 0.00 77 1011.1
20260906114228 14 162 3.2 4.8 0.00 1.45 0.00 77 1011.1
20260906113233 14 162 0.0 4.8 0.00 1.45 0.00 76 1011.1
20260906112234 14 162 4.8 6.4 0.00 1.45 0.00 77 1011.1
20260906111224 15 162 0.0 4.8 0.00 1.45 0.00 76 1010.9
20260906110230 15 162 0.0 4.8 0.00 1.45 0.00 75 1010.9
20260906105225 15 162 3.2 6.4 0.00 1.45 0.00 75 1010.7
20260906104225 15 162 0.0 0.0 0.00 1.45 0.00 75 1010.6
20260906103221 15 162 0.0 0.0 0.00 1.45 0.00 74 1010.6
20260906102226 15 162 1.6 8.0 0.00 1.45 0.00 76 1010.5
20260906101231 15 162 0.0 4.8 0.00 1.45 0.00 76 1010.6
20260906100234 15 162 0.0 1.6 0.00 1.45 0.00 76 1010.6
20260906095224 15 162 1.6 4.8 0.00 1.45 0.00 75 1010.6
20260906094236 15 162 3.2 6.4 0.00 1.45 0.00 75 1010.6
20260906093252 15 162 0.0 0.0 0.00 1.45 0.00 77 1010.6
20260906092234 15 162 0.0 0.0 0.00 1.45 0.00 76 1010.5
20260906091223 15 162 0.0 0.0 0.00 1.45 0.00 77 1010.5
20260906090229 15 162 3.2 6.4 0.00 1.45 0.00 74 1010.5
20260906085235 16 162 4.8 8.0 0.00 1.45 0.00 73 1010.3
20260906084221 16 162 4.8 8.0 0.00 1.45 0.00 73 1010.3
20260906083223 16 162 0.0 4.8 0.00 1.45 0.00 74 1010.3
20260906082228 15 162 3.2 6.4 0.00 1.45 0.00 76 1010.5
20260906081232 15 162 4.8 9.7 0.00 1.45 0.00 77 1010.5
20260906080229 15 165 4.8 6.4 0.00 1.45 0.00 79 1010.5
20260906075248 16 165 6.4 9.7 0.00 1.45 0.00 77 1010.5
20260906074234 15 164 8.0 9.7 0.00 1.45 0.00 77 1010.5
20260906073227 15 164 4.8 9.7 0.00 1.45 0.00 81 1010.5
20260906072230 15 163 4.8 9.7 0.00 1.45 0.00 82 1010.5
20260906071238 15 150 1.6 4.8 0.00 1.45 0.00 85 1010.3
20260906070227 15 150 3.2 8.0 0.00 1.45 0.00 87 1010.3
20260906065231 15 148 4.8 8.0 0.00 1.45 0.00 89 1010.2
20260906064218 15 138 1.6 6.4 0.00 1.45 0.00 89 1010.5
20260906063229 15 130 1.6 4.8 0.03 1.45 0.00 90 1010.5
20260906062238 15 128 0.0 4.8 0.13 1.45 0.00 89 1010.6
20260906061221 15 128 3.2 8.0 1.04 1.45 0.00 89 1010.6
20260906060228 15 45 0.0 3.2 1.45 1.45 0.00 89 1010.6
20260906055229 14 45 4.8 12.9 1.45 1.45 1.45 88 1010.8
20260906054238 14 45 8.0 17.7 1.45 1.45 1.45 87 1011.2
20260906053226 15 19 8.0 16.1 1.42 1.42 1.42 84 1011.2
20260906052235 15 19 20.9 45.1 1.30 1.30 1.30 78 1013.2
20260906051222 18 167 33.8 43.5 0.33 0.33 0.33 51 1010.6
20260906050230 22 85 0.0 0.0 0.00 0.00 0.00 43 1010.6
20260906045233 23 84 0.0 1.6 0.00 0.00 0.00 34 1010.7
20260906044239 23 84 0.0 4.8 0.00 0.00 0.00 33 1011.1
20260906043257 23 86 0.0 1.6 0.00 0.00 0.00 31 1011.1
20260906042228 24 87 1.6 8.0 0.00 0.00 0.00 29 1010.8
20260906041221 25 360 4.8 6.4 0.00 0.00 0.00 28 1010.7
20260906040228 25 85 1.6 16.1 0.00 0.00 0.00 27 1010.7
20260906035228 25 150 6.4 17.7 0.00 0.00 0.00 28 1010.6
20260906034233 23 151 9.7 20.9 0.00 0.00 0.00 29 1010.0
20260906033226 23 360 3.2 4.8 0.00 0.00 0.00 31 1010.0
20260906032228 23 5 1.6 4.8 0.00 0.00 0.00 28 1009.9
20260906031217 24 5 0.0 3.2 0.00 0.00 0.00 28 1009.4
20260906030245 25 5 0.0 4.8 0.00 0.00 0.00 27 1009.4
20260906025224 25 5 6.4 8.0 0.00 0.00 0.00 26 1009.3
20260906024235 24 5 6.4 12.9 0.00 0.00 0.00 27 1009.3
20260906023240 23 167 1.6 8.0 0.00 0.00 0.00 28 1009.3
20260906022235 23 167 1.6 4.8 0.00 0.00 0.00 28 1009.2
20260906021301 23 167 1.6 3.2 0.00 0.00 0.00 27 1008.8
20260906020229 23 167 0.0 4.8 0.00 0.00 0.00 28 1008.8
20260906015233 23 167 4.8 8.0 0.00 0.00 0.00 28 1008.7
20260906014238 24 167 4.8 6.4 0.00 0.00 0.00 26 1008.6
20260906013226 25 360 4.8 6.4 0.00 0.00 0.00 25 1008.6
20260906012230 26 360 4.8 11.3 0.00 0.00 0.00 23 1008.5
20260906011234 27 166 6.4 8.0 0.00 0.00 0.00 23 1008.4
20260906010258 28 166 4.8 8.0 0.00 0.00 0.00 22 1008.4
20260906005226 28 166 4.8 9.7 0.00 0.00 0.00 21 1008.6
20260906004234 30 165 3.2 8.0 0.00 0.00 0.00 20 1008.6
20260906003239 30 163 4.8 11.3 0.00 0.00 0.00 19 1008.6
20260906002230 30 145 1.6 3.2 0.00 0.00 0.00 18 1008.5
20260906001237 30 103 0.0 4.8 0.00 0.00 0.00 19 1008.4
20260906000241 31 103 0.0 11.3 0.00 0.00 0.00 17 1008.4
20260905235222 31 127 1.6 6.4 0.00 0.00 0.00 16 1008.3
20260905234258 32 120 4.8 9.7 0.00 0.00 0.00 16 1008.2
20260905233222 31 130 3.2 11.3 0.00 0.00 0.00 17 1008.2
20260905232226 32 110 3.2 11.3 0.00 0.00 0.00 15 1008.2
20260905231231 32 84 3.2 11.3 0.00 0.00 0.00 15 1008.2
20260905230235 33 45 6.4 11.3 0.00 0.00 0.00 14 1008.2
20260905225223 34 87 6.4 11.3 0.00 0.00 0.00 14 1008.1
20260905224229 33 355 1.6 6.4 0.00 0.00 0.00 14 1008.3
20260905223236 32 15 4.8 11.3 0.00 0.00 0.00 16 1008.3
20260905222241 32 5 8.0 14.5 0.00 0.00 0.00 15 1008.4
20260905221229 32 71 4.8 14.5 0.00 0.00 0.00 16 1008.4